This is the latest recevied weather packets stored in our database for station/object KC5DAQ-27. If no packets are shown the sender has not sent any weather packets the latest 1 day(s).
| Time | Temp. | Humidity | Pressure | Rain* | Wind** | Luminosity | Snow |
|---|---|---|---|---|---|---|---|
| 1778104507 | 29.44° C | 80% | 999.5 hPa | 0 mm | - | 114 W/m² | - |
| 1778104082 | 29.44° C | 80% | 999.5 hPa | 0 mm | - | 160 W/m² | - |
| 1778104024 | 29.44° C | 80% | 999.6 hPa | 0 mm | - | 153 W/m² | - |
| 1778103844 | 29.44° C | 80% | 999.5 hPa | 0 mm | - | 155 W/m² | - |
| 1778103723 | 29.44° C | 80% | 999.5 hPa | 0 mm | - | 230 W/m² | - |
| 1778103604 | 29.44° C | 80% | 999.5 hPa | 0 mm | - | 204 W/m² | - |
| 1778103183 | 29.44° C | 79% | 999.7 hPa | 0 mm | - | 260 W/m² | - |
| 1778102344 | 30° C | 79% | 999.7 hPa | 0 mm | - | 181 W/m² | - |
| 1778101984 | 30° C | 78% | 999.6 hPa | 0 mm | - | 287 W/m² | - |
| 1778101677 | 30° C | 78% | 999.7 hPa | 0 mm | - | 208 W/m² | - |
| 1778101248 | 30° C | 79% | 999.7 hPa | 0 mm | - | 366 W/m² | - |
| 1778101185 | 30° C | 79% | 999.7 hPa | 0 mm | - | 628 W/m² | - |
| 1778101062 | 30° C | 79% | 999.6 hPa | 0 mm | - | 631 W/m² | - |
| 1778100817 | 30° C | 79% | 999.8 hPa | 0 mm | - | 522 W/m² | - |
| 1778100694 | 30° C | 80% | 999.8 hPa | 0 mm | - | 763 W/m² | - |
| 1778100092 | 29.44° C | 81% | 999.9 hPa | 0 mm | - | 733 W/m² | - |
| 1778099972 | 29.44° C | 82% | 999.8 hPa | 0 mm | - | 390 W/m² | - |
| 1778099852 | 29.44° C | 82% | 999.7 hPa | 0 mm | - | 731 W/m² | - |
| 1778099731 | 29.44° C | 82% | 999.9 hPa | 0 mm | - | 916 W/m² | - |
| 1778099252 | 28.89° C | 80% | 999.8 hPa | 0 mm | - | 415 W/m² | - |
| 1778099192 | 29.44° C | 80% | 999.8 hPa | 0 mm | - | 431 W/m² | - |
| 1778099131 | 29.44° C | 80% | 999.9 hPa | 0 mm | - | 477 W/m² | - |
| 1778098832 | 29.44° C | 81% | 1000 hPa | 0 mm | - | 311 W/m² | - |
| 1778098711 | 29.44° C | 81% | 1000.1 hPa | 0 mm | - | 429 W/m² | - |
| 1778098653 | 29.44° C | 81% | 1000.1 hPa | 0 mm | - | 918 W/m² | - |
* Rain latest hour (hover to see other rain measurements)
** Current wind speed in m/s (hover to see current wind gust speed)